North Bennington, VT

4:11 AM EDT on September 25, 2016 (GMT -0400)
Morse State

Weather History for KDDH - September, 2013

Change the Weather History Date:

Friday, September 13, 2013

  Actual Average Record
Temperature  
Mean Temperature 60 °F 60 °F  
Max Temperature 68 °F 72 °F 87 °F (2005)
Min Temperature 51 °F 49 °F 39 °F (2014)
Degree Days  
Heating Degree Days 5 6  
Month to date heating degree days 58 55  
Since 1 July heating degree days 121 127  
Cooling Degree Days 0 1  
Month to date cooling degree days 44 17  
Year to date cooling degree days 503 305  
Growing Degree Days 10 (Base 50)    
Moisture  
Dew Point 58 °F    
Average Humidity 85    
Maximum Humidity 96    
Minimum Humidity 73    
Precipitation  
Precipitation 0.19 in 0.11 in 0.30 in (2014)
Month to date precipitation 3.25 1.39  
Year to date precipitation 34.97 28.93  
Sea Level Pressure  
Sea Level Pressure 29.71 in    
Wind  
Wind Speed 6 mph (West)    
Max Wind Speed 13 mph    
Max Gust Speed 18 mph    
Visibility 9 miles    
Events Rain    
T = Trace of Precipitation, MM = Missing Value Source: NWS Daily Summary

Daily Weather History Graph

Daily Weather History Graph

Search for Another Location

Airport or City:

Trip Planner

Search our weather history database for the weather conditions in past years. The results will help you decide how hot, cold, wet, or windy it might be!

Date:

Astronomy

Sep. 13, 2013 Rise Set
Actual Time 6:30 AM EDT 7:06 PM EDT
Civil Twilight 6:02 AM EDT 7:34 PM EDT
Nautical Twilight 5:28 AM EDT 8:08 PM EDT
Astronomical Twilight 4:53 AM EDT 8:42 PM EDT
Moon 2:59 PM EDT (9/13) No Moon Set
Length of Visible Light 13h 32m
Length of Day
12h 35m
First Quarter, 61% of the Moon is Illuminated
Sep 13
First Quarter
Sep 19
Full
Sep 26
Last Quarter
Oct 4
New
Oct 11
First Quarter

Hourly Weather History & Observations

Time (EDT) Temp. Dew Point Humidity Pressure Visibility Wind Dir Wind Speed Gust Speed Precip Events Conditions
12:54 AM 66.0 °F 64.0 °F 93% 29.67 in 9.0 mi SW 3.5 mph - 0.00 in Rain Light Rain
1:35 AM 66.2 °F 64.4 °F 94% 29.68 in 10.0 mi Calm Calm - 0.01 in   Overcast
1:54 AM 66.0 °F 63.0 °F 90% 29.66 in 8.0 mi SW 3.5 mph - 0.01 in Rain Light Rain
2:33 AM 66.2 °F 62.6 °F 88% 29.67 in 5.0 mi SW 5.8 mph - 0.01 in Rain Light Rain
2:54 AM 66.0 °F 63.0 °F 90% 29.65 in 10.0 mi SW 4.6 mph - 0.02 in   Mostly Cloudy
3:14 AM 64.4 °F 62.6 °F 94% 29.65 in 10.0 mi SSW 4.6 mph - 0.00 in Rain Light Rain
3:54 AM 64.9 °F 62.1 °F 90% 29.64 in 10.0 mi SW 3.5 mph - 0.00 in   Overcast
4:54 AM 64.0 °F 61.0 °F 90% 29.64 in 10.0 mi SSW 3.5 mph - N/A   Overcast
5:54 AM 63.0 °F 60.1 °F 90% 29.65 in 10.0 mi SW 3.5 mph - N/A   Overcast
6:06 AM 64.4 °F 60.8 °F 88% 29.66 in 10.0 mi West 3.5 mph - N/A   Overcast
6:54 AM 63.0 °F 60.1 °F 90% 29.67 in 10.0 mi WSW 6.9 mph - N/A   Overcast
7:26 AM 62.6 °F 60.8 °F 94% 29.67 in 6.0 mi WSW 5.8 mph - 0.01 in Rain Light Rain
7:54 AM 63.0 °F 60.1 °F 90% 29.66 in 7.0 mi Variable 3.5 mph - 0.01 in Rain Light Rain
8:28 AM 64.4 °F 60.8 °F 88% 29.67 in 10.0 mi WSW 5.8 mph - 0.01 in   Overcast
8:36 AM 64.4 °F 60.8 °F 88% 29.67 in 10.0 mi WSW 6.9 mph - 0.01 in   Overcast
8:46 AM 64.4 °F 60.8 °F 88% 29.67 in 10.0 mi West 3.5 mph - 0.01 in   Overcast
8:54 AM 64.0 °F 60.1 °F 87% 29.66 in 10.0 mi Variable 3.5 mph - 0.01 in   Overcast
8:59 AM 64.4 °F 60.8 °F 88% 29.67 in 10.0 mi West 4.6 mph - N/A   Overcast
9:33 AM 64.4 °F 62.6 °F 94% 29.67 in 10.0 mi WNW 3.5 mph - N/A   Mostly Cloudy
9:41 AM 64.4 °F 60.8 °F 88% 29.67 in 10.0 mi Calm Calm - N/A   Mostly Cloudy
9:54 AM 66.0 °F 61.0 °F 84% 29.67 in 10.0 mi West 5.8 mph - N/A   Mostly Cloudy
10:26 AM 66.2 °F 60.8 °F 83% 29.68 in 10.0 mi NW 4.6 mph - N/A   Overcast
10:54 AM 66.9 °F 60.1 °F 79% 29.67 in 10.0 mi NNW 8.1 mph - N/A   Mostly Cloudy
11:54 AM 66.9 °F 57.9 °F 73% 29.67 in 10.0 mi NNW 9.2 mph - N/A   Overcast
12:07 PM 66.2 °F 57.2 °F 73% 29.68 in 10.0 mi NNW 8.1 mph - N/A   Overcast
12:54 PM 66.0 °F 57.0 °F 73% 29.68 in 10.0 mi NNW 12.7 mph 18.4 mph N/A   Overcast
1:21 PM 60.8 °F 57.2 °F 88% 29.70 in 2.5 mi NW 6.9 mph - 0.04 in Rain Heavy Rain
1:38 PM 60.8 °F 57.2 °F 88% 29.70 in 7.0 mi NW 8.1 mph 17.3 mph 0.07 in Rain Light Rain
1:54 PM 60.1 °F 57.0 °F 90% 29.70 in 6.0 mi Variable 6.9 mph - 0.08 in Rain Light Rain
2:54 PM 62.1 °F 57.0 °F 84% 29.70 in 10.0 mi Variable 6.9 mph - 0.02 in   Overcast
3:16 PM 62.6 °F 55.4 °F 77% 29.71 in 10.0 mi NNW 9.2 mph 16.1 mph N/A   Overcast
3:54 PM 59.0 °F 54.0 °F 83% 29.72 in 10.0 mi NW 8.1 mph - N/A   Overcast
4:54 PM 57.9 °F 54.0 °F 87% 29.75 in 10.0 mi NNW 5.8 mph - 0.01 in Rain Light Rain
5:54 PM 57.0 °F 53.1 °F 87% 29.75 in 10.0 mi NW 5.8 mph - 0.02 in   Overcast
6:50 PM 55.4 °F 53.6 °F 94% 29.77 in 10.0 mi Variable 5.8 mph - N/A   Overcast
6:54 PM 57.0 °F 52.0 °F 83% 29.77 in 10.0 mi NW 6.9 mph - N/A   Overcast
7:54 PM 55.9 °F 51.1 °F 84% 29.81 in 10.0 mi NNW 5.8 mph - N/A   Overcast
8:54 PM 55.0 °F 52.0 °F 89% 29.83 in 10.0 mi Variable 3.5 mph - 0.00 in   Overcast
9:54 PM 53.1 °F 51.1 °F 93% 29.84 in 10.0 mi West 4.6 mph - 0.00 in   Overcast
10:39 PM 53.6 °F 51.8 °F 94% 29.86 in 10.0 mi WNW 4.6 mph - 0.00 in   Overcast
10:47 PM 53.6 °F 51.8 °F 94% 29.86 in 10.0 mi WNW 3.5 mph - 0.00 in   Overcast
10:54 PM 53.1 °F 51.1 °F 93% 29.86 in 10.0 mi Variable 4.6 mph - 0.00 in   Overcast
11:15 PM 53.6 °F 50.0 °F 88% 29.86 in 10.0 mi WNW 4.6 mph - N/A   Overcast
11:54 PM 52.0 °F 50.0 °F 93% 29.86 in 7.0 mi Variable 3.5 mph - N/A   Overcast